N831B KVPZ-KGYY

Flight info

Callsign N831B
Flight time 0h 25m
Altitude 5000
Route RV
Aircraft C172/L-VGD/A

Departure

Time 2026-04-13 05:52
Airport Porter County Municipal Airport (KVPZ)

Arrival

Time 2026-04-13 06:17
Airport Gary/Chicago International Airport (KGYY)
Time Latitude Longitude Altitude Speed Heading
2026-04-13 05:40 41.44955 -87.00443 756 ft 0 kts 258°
2026-04-13 05:43 41.44984 -87.00548 758 ft 2 kts 316°
2026-04-13 05:43 41.45047 -87.00566 758 ft 7 kts 358°
2026-04-13 05:43 41.45050 -87.00581 758 ft 0 kts 264°
2026-04-13 05:44 41.45050 -87.00503 758 ft 14 kts 91°
2026-04-13 05:44 41.45074 -87.00440 760 ft 7 kts
2026-04-13 05:44 41.45132 -87.00417 760 ft 5 kts 84°
2026-04-13 05:44 41.45132 -87.00330 761 ft 15 kts 92°
2026-04-13 05:45 41.45132 -87.00120 763 ft 27 kts 92°
2026-04-13 05:45 41.45130 -86.99918 768 ft 19 kts 91°
2026-04-13 05:45 41.45130 -86.99698 766 ft 26 kts 89°
2026-04-13 05:45 41.45129 -86.99571 765 ft 1 kts 90°
2026-04-13 05:46 41.45130 -86.99545 765 ft 9 kts 91°
2026-04-13 05:46 41.45144 -86.99465 764 ft 0 kts 54°
2026-04-13 05:50 41.45153 -86.99457 764 ft 8 kts 24°
2026-04-13 05:51 41.45240 -86.99503 765 ft 14 kts 267°
2026-04-13 05:51 41.45237 -86.99892 768 ft 67 kts 269°
2026-04-13 05:51 41.45215 -87.00626 925 ft 80 kts 261°
2026-04-13 05:51 41.45094 -87.01352 1150 ft 81 kts 254°
2026-04-13 05:52 41.44949 -87.02074 1384 ft 81 kts 257°
2026-04-13 05:52 41.44829 -87.02788 1613 ft 79 kts 255°
2026-04-13 05:52 41.44723 -87.03529 1820 ft 81 kts 269°
2026-04-13 05:52 41.44721 -87.04262 2031 ft 81 kts 268°
2026-04-13 05:53 41.44693 -87.05012 2243 ft 80 kts 264°
2026-04-13 05:53 41.44572 -87.05741 2414 ft 83 kts 247°
2026-04-13 05:53 41.44484 -87.06469 2584 ft 84 kts 291°
2026-04-13 05:53 41.44849 -87.07014 2833 ft 73 kts 307°
2026-04-13 05:54 41.45129 -87.07642 2969 ft 80 kts 296°
2026-04-13 05:54 41.45341 -87.08287 3154 ft 79 kts 289°
2026-04-13 05:54 41.45570 -87.08945 3345 ft 76 kts 297°
2026-04-13 05:54 41.45829 -87.09592 3493 ft 80 kts 298°
2026-04-13 05:55 41.46085 -87.10226 3684 ft 77 kts 298°
2026-04-13 05:55 41.46349 -87.10876 3822 ft 79 kts 298°
2026-04-13 05:55 41.46608 -87.11517 3964 ft 80 kts 298°
2026-04-13 05:55 41.46869 -87.12160 4132 ft 78 kts 298°
2026-04-13 05:56 41.47163 -87.12910 3940 ft 112 kts 296°
2026-04-13 05:56 41.47488 -87.13862 3925 ft 112 kts 294°
2026-04-13 05:56 41.47895 -87.14837 3606 ft 126 kts 303°
2026-04-13 05:56 41.48400 -87.15781 3428 ft 120 kts 301°
2026-04-13 05:57 41.48844 -87.16637 3350 ft 113 kts 308°
2026-04-13 05:57 41.49310 -87.17472 3198 ft 114 kts 307°
2026-04-13 05:57 41.49797 -87.18303 3097 ft 108 kts 310°
2026-04-13 05:57 41.50257 -87.19002 3060 ft 102 kts 309°
2026-04-13 05:58 41.50748 -87.19801 2802 ft 113 kts 310°
2026-04-13 05:58 41.51242 -87.20564 2806 ft 99 kts 312°
2026-04-13 05:58 41.51561 -87.21415 2596 ft 110 kts 296°
2026-04-13 05:58 41.51923 -87.22311 2463 ft 110 kts 302°
2026-04-13 05:59 41.52382 -87.23129 2368 ft 106 kts 307°
2026-04-13 05:59 41.52773 -87.23948 2225 ft 110 kts 301°
2026-04-13 05:59 41.53205 -87.24815 2073 ft 110 kts 308°
2026-04-13 05:59 41.53695 -87.25584 1962 ft 109 kts 315°
2026-04-13 06:00 41.54197 -87.26280 2042 ft 82 kts 314°
2026-04-13 06:00 41.54567 -87.26893 2077 ft 74 kts 301°
2026-04-13 06:00 41.54813 -87.27627 2069 ft 90 kts 281°
2026-04-13 06:00 41.54984 -87.28493 2096 ft 99 kts 299°
2026-04-13 06:01 41.55408 -87.29206 2172 ft 100 kts 302°
2026-04-13 06:01 41.55845 -87.29944 2223 ft 101 kts 311°
2026-04-13 06:01 41.56218 -87.30725 2326 ft 99 kts 301°
2026-04-13 06:01 41.56634 -87.31512 2307 ft 108 kts 312°
2026-04-13 06:02 41.57089 -87.32351 2207 ft 114 kts 303°
2026-04-13 06:02 41.57580 -87.33292 1869 ft 130 kts 307°
2026-04-13 06:02 41.58055 -87.34261 1751 ft 120 kts 303°
2026-04-13 06:02 41.58560 -87.35137 1625 ft 113 kts 308°
2026-04-13 06:03 41.58993 -87.36028 1398 ft 119 kts 303°
2026-04-13 06:03 41.59444 -87.36917 1232 ft 119 kts 306°
2026-04-13 06:03 41.59930 -87.37762 1127 ft 105 kts 310°
2026-04-13 06:03 41.60279 -87.38505 988 ft 92 kts 287°
2026-04-13 06:04 41.60564 -87.39219 861 ft 82 kts 311°
2026-04-13 06:04 41.60982 -87.39861 963 ft 92 kts 310°
2026-04-13 06:04 41.61391 -87.40532 1150 ft 97 kts 307°
2026-04-13 06:04 41.61740 -87.41297 1387 ft 94 kts 294°
2026-04-13 06:05 41.61877 -87.42155 1554 ft 99 kts 267°
2026-04-13 06:05 41.61823 -87.43051 1802 ft 94 kts 275°
2026-04-13 06:05 41.62277 -87.43536 1990 ft 93 kts
2026-04-13 06:05 41.62725 -87.43030 2182 ft 94 kts 65°
2026-04-13 06:06 41.63026 -87.42252 2428 ft 88 kts 67°
2026-04-13 06:06 41.63253 -87.41453 2559 ft 96 kts 69°
2026-04-13 06:06 41.63461 -87.40661 2831 ft 88 kts 68°
2026-04-13 06:06 41.63730 -87.39904 2987 ft 92 kts 62°
2026-04-13 06:07 41.63988 -87.39046 2962 ft 105 kts 69°
2026-04-13 06:07 41.64262 -87.38166 3066 ft 105 kts 67°
2026-04-13 06:07 41.64284 -87.37176 3068 ft 111 kts 106°
2026-04-13 06:07 41.64075 -87.36189 3102 ft 115 kts 107°
2026-04-13 06:08 41.63801 -87.35159 3113 ft 117 kts 111°
2026-04-13 06:08 41.63522 -87.34113 3092 ft 120 kts 109°
2026-04-13 06:08 41.63260 -87.33053 3118 ft 120 kts 108°
2026-04-13 06:08 41.62990 -87.31998 3104 ft 122 kts 110°
2026-04-13 06:09 41.62680 -87.30948 3130 ft 120 kts 113°
2026-04-13 06:09 41.62380 -87.29875 3072 ft 126 kts 110°
2026-04-13 06:09 41.61961 -87.28877 3098 ft 122 kts 121°
2026-04-13 06:09 41.61509 -87.27892 3081 ft 124 kts 122°
2026-04-13 06:10 41.61039 -87.26947 3102 ft 122 kts 125°
2026-04-13 06:10 41.60506 -87.26035 3094 ft 124 kts 129°
2026-04-13 06:10 41.60030 -87.25071 3078 ft 124 kts 121°
2026-04-13 06:10 41.59599 -87.24088 2994 ft 124 kts 121°
2026-04-13 06:11 41.59123 -87.23116 2862 ft 126 kts 126°
2026-04-13 06:11 41.58592 -87.22170 2718 ft 126 kts 127°
2026-04-13 06:11 41.58043 -87.21246 2523 ft 130 kts 137°
2026-04-13 06:11 41.57193 -87.20903 2272 ft 134 kts 189°
2026-04-13 06:12 41.56401 -87.21521 2106 ft 129 kts 219°
2026-04-13 06:12 41.55745 -87.22255 2072 ft 122 kts 221°
2026-04-13 06:12 41.55151 -87.22984 2080 ft 115 kts 226°
2026-04-13 06:12 41.54755 -87.23914 2035 ft 115 kts 253°
2026-04-13 06:13 41.54734 -87.24944 2039 ft 112 kts 279°
2026-04-13 06:13 41.54864 -87.25949 2053 ft 110 kts 277°
2026-04-13 06:13 41.54964 -87.26929 2134 ft 104 kts 279°
2026-04-13 06:13 41.55103 -87.27908 2108 ft 109 kts 281°
2026-04-13 06:14 41.55251 -87.28873 2164 ft 105 kts 282°
2026-04-13 06:14 41.55673 -87.30790 2121 ft 114 kts 309°
2026-04-13 06:14 41.56295 -87.31392 2132 ft 112 kts 314°
2026-04-13 06:15 41.56822 -87.32166 2118 ft 114 kts 311°
2026-04-13 06:15 41.57361 -87.33002 1989 ft 122 kts 311°
2026-04-13 06:15 41.57923 -87.33881 1847 ft 122 kts 308°
2026-04-13 06:15 41.58383 -87.34866 1623 ft 130 kts 301°
2026-04-13 06:16 41.58888 -87.35822 1450 ft 124 kts 308°
2026-04-13 06:16 41.59370 -87.36759 1225 ft 124 kts 305°
2026-04-13 06:16 41.59848 -87.37668 1093 ft 118 kts 306°
2026-04-13 06:16 41.60322 -87.38561 951 ft 115 kts 302°
2026-04-13 06:17 41.60744 -87.39435 833 ft 103 kts 307°
2026-04-13 06:17 41.61093 -87.40113 684 ft 72 kts 301°
2026-04-13 06:17 41.61320 -87.40556 588 ft 45 kts 305°
2026-04-13 06:17 41.61456 -87.40839 588 ft 27 kts 304°
2026-04-13 06:18 41.61505 -87.40939 588 ft 0 kts 304°